Regional Weather Roundup
Issued by NWS

Home | Current Version | Previous Version | Graphics & Text | Print | Product List | Glossary On
Versions: 1 2 3 4 5 6 7 8 9 10 11 12 13 14 15 16 17 18 19 20 21 22 23 24 25 26 27 28
000
ASUS45 KTFX 231610
RWRMT
MONTANA REGIONAL WEATHER ROUNDUP
NATIONAL WEATHER SERVICE GREAT FALLS MT
900 AM MST THU NOV 23 2017

NOTE: "FAIR" INDICATES FEW OR NO CLOUDS BELOW 12000 FEET WITH NO
SIGNIFICANT WEATHER AND/OR OBSTRUCTIONS TO VISIBILITY.

MTZ001>007-043-231700-
WEST OF THE DIVIDE

CITY           SKY/WX    TMP DP  RH WIND       PRES   REMARKS
KALISPELL      CLOUDY    53  48  83 SE12      29.75F
MISSOULA       LGT RAIN  45  41  86 SE6       29.91R
BUTTE          FAIR      32  28  85 SE5       30.01F
MULLAN PASS    RAIN      41  41 100 SW15G33   29.87F FOG
ANACONDA         N/A     52  36  54 S16G25    29.95F
DEER LODGE       N/A     54  37  54 SE16G24   29.95S
EUREKA           N/A     55  46  71 MISG      29.71R
HAMILTON         N/A     55  37  50 S12       29.94S
LIBBY            N/A     52  52 100 S3        29.73S
PLAINS           N/A     59  46  61 S9        29.83F
RONAN            N/A     57  43  59 S14       29.89F
$$

MTZ008-052>055-231700-
SOUTHWEST MONTANA

CITY           SKY/WX    TMP DP  RH WIND       PRES   REMARKS
BOZEMAN        FAIR      37  32  82 S7        29.98F WCI  32
DILLON         PTSUNNY   46  34  62 CALM      30.04F
W YELLOWSTONE  CLOUDY    43  39  87 SE6       30.19F
ENNIS          CLOUDY    52  37  58 S18G25    30.11R
TWIN BRIDGES     N/A     47  33  58 CALM      30.01F
$$

MTZ009-010-012-014-046-048-049-054-231700-
EAST SLOPES AND CENTRAL MONTANA

CITY           SKY/WX    TMP DP  RH WIND       PRES   REMARKS
CUT BANK       FAIR      53  44  71 SW26G38   29.64S
GREAT FALLS    FAIR      58  36  43 SW23G32   29.74F
MALMSTROM AFB  FAIR      60  37  41 SW32G44   29.73S
HELENA         FAIR      45  38  76 W8        29.88F
BOWMANS CRNR   FAIR      56  37  49 SW30G38   29.78F
CHOTEAU          N/A     59  41  51 SW25G40   29.72S
FAIRFIELD      FAIR      58  38  48 SW22G36   29.73F
POWER          FAIR      58  38  46 SW36G47   29.70F
RAYNESFORD     FAIR      62  33  34 W36G52    29.75F
ULM            FAIR      60  36  40 SW22G32   29.77F
$$

MTZ011-013-016-021-045-047-050-051-231700-
NORTH CENTRAL MONTANA

CITY           SKY/WX    TMP DP  RH WIND       PRES   REMARKS
HAVRE          FAIR      61  40  45 SW24G32   29.64S
LEWISTOWN      FAIR      58  35  42 SW21      29.79F
N BAR RANCH    FAIR      61  32  33 W17G26    29.83F
CHINOOK          N/A     64  39  39 SW26G37   29.60F
DENTON         PTSUNNY   61  36  39 SW21      29.72F
GEYSER         FAIR      59  34  39 W41G53    29.71S
GRASS RANGE    FAIR      60  33  36 SW10      29.75F
STANFORD       FAIR      60  32  34 W24G35    29.77F
WINIFRED       FAIR      57  37  47 S10       29.73F
$$

MTZ017>020-022>027-061-062-231700-
NORTHEAST MONTANA

CITY           SKY/WX    TMP DP  RH WIND       PRES   REMARKS
GLASGOW        FAIR      54  40  59 W7        29.65F
GLENDIVE       FAIR      47  40  76 S12       29.75F
JORDAN           N/A     56  39  53 W8        29.74F
SIDNEY         FAIR      46  40  79 S14       29.69F
WOLF POINT     FAIR      34  30  85 CALM      29.67F
MALTA          SUNNY     55  39  54 SW8G15    29.65F
PLENTYWOOD       N/A     39  36  87 CALM      29.63F
POPLAR           N/A     43  37  81 S3        29.67F
SCOBEY           N/A     48  33  56 CALM      29.63F
$$

MTZ028>42-056>058-231700-
SOUTHCENTRAL AND SOUTHEAST MONTANA

CITY           SKY/WX    TMP DP  RH WIND       PRES   REMARKS
BAKER          FAIR      53  40  61 W10       29.82F
BILLINGS       PTSUNNY   55  38  52 W15       29.87F
LIVINGSTON     FAIR      58  39  49 SW46G60   29.89S
MILES CITY     FAIR      45  39  79 SE9       29.81F
BIG TIMBER     SUNNY     57  36  44 W18G25    29.92S
EKALAKA          N/A     57  35  43 SW10      29.85F
FORSYTH          N/A     57  39  51 SW5       29.82R
HARLOWTON      FAIR      57  33  41 W14G22    29.85F
LAUREL           N/A     55  37  50 SW13G18   29.89R
ROUNDUP          N/A     52  36  54 S10       29.78F
$$

REGIONAL REPORTS...DAKOTAS

CITY           SKY/WX    TMP DP  RH WIND       PRES   REMARKS
WILLISTON      FAIR      42  38  85 SW8       29.67F
MINOT          FAIR      43  36  76 SW10      29.65F
DICKINSON      FAIR      51  39  63 W12       29.74F
BEACH          FAIR      54  39  58 W17       29.79F
CROSBY         FAIR      41  39  93 SW20      29.61F
TIOGA          FAIR      39  39 100 SW9       29.67F
WATFORD CITY   FAIR      45  41  87 SW15      29.68F
BISMARCK       FAIR      36  32  85 E3        29.77F
GRAND FORKS    CLOUDY    31  29  92 S10       29.83F WCI  22
FARGO          CLOUDY    29  28  96 S10       29.85F FOG     WCI  20
RAPID CITY     FAIR      57  39  51 CALM      29.94F
$$

REGIONAL REPORTS...WYOMING/IDAHO/WASHINGTON

CITY           SKY/WX    TMP DP  RH WIND       PRES   REMARKS
GILLETTE         N/A     57  36  45 SW18      29.94F
SHERIDAN       FAIR      53  38  56 S3        29.91F
BUFFALO WY     FAIR      52  31  44 CALM      29.97F
CODY           FAIR      58  34  40 S10G23    30.05F
YELLOWSTONE LA   N/A     36  35  96 CALM      30.25F
IDAHO FALLS    PTSUNNY   36  36 100 CALM      30.19F
SALMON         FOG       37  36  93 CALM      30.11F VSB 1/2
BOISE          FAIR      48  45  89 CALM      30.09R
SPOKANE        MOCLDY    52  50  93 SW21      29.80S
$$

REGIONAL REPORTS...ALBERTA

CITY           SKY/WX    TMP DP  RH WIND       PRES   REMARKS
EDMONTON       MOCLDY    23  18  80 W10       29.35R WCI  12
CALGARY        MOCLDY    52  39  62 W7        29.40R
LETHBRIDGE     PTCLDY    55  43  62 SW26G33   29.51S
MEDICINE HAT   PTCLDY    50  41  71 SW20G28   29.43F
$$

REGIONAL REPORTS...SASKATCHEWAN

CITY           SKY/WX    TMP DP  RH WIND       PRES   REMARKS
SWIFT CURRENT  CLEAR     46  37  71 SW28G36   29.45F
REGINA         MOSUNNY   25  25 100 E10       29.50F WCI  15
SASKATOON      MOCLDY    21  19  93 SE9       29.38F WCI  11
$$




USA.gov is the U.S. government's official web portal to all federal, state and local government web resources and services.